Probability
35 31 26 24 25 25 24 25 26 26 26 25 27 29 31 32 30 29 29 29 27 23 21 21 21 22 21 20 19 17 16 13 10 10 14 19 21 18 15 14 13 11 9
34 30 26 25 27 28 28 28 29 28 27 27 30 32 33 32 31 30 29 29 27 24 21 20 19 19 20 20 20 18 16 13 11 12 15 20 21 19 18 17 15 13 11
31 29 28 28 31 32 32 31 31 31 31 32 33 32 32 31 30 30 30 30 28 25 23 22 20 18 18 21 21 18 16 14 15 16 16 18 18 18 18 18 17 16 13
29 29 30 31 33 34 33 32 33 33 34 34 33 30 28 26 26 27 28 28 28 27 27 27 24 20 19 20 20 18 18 18 18 19 17 15 15 17 17 16 16 17 16
30 30 30 31 32 33 34 35 35 34 34 33 31 28 25 22 21 21 23 25 28 29 29 29 27 22 19 17 15 16 18 19 19 18 15 12 12 14 15 13 13 14 15
37 36 32 30 30 32 34 37 39 38 36 33 30 28 25 19 16 15 17 21 26 29 29 27 25 21 18 15 11 9 11 13 14 14 12 10 9 10 11 11 10 10 10
45 42 37 33 32 33 35 38 42 42 40 36 32 29 25 18 12 10 11 15 21 25 26 24 21 19 18 16 11 8 8 9 9 9 10 10 9 9 9 10 9 8 6
46 45 42 40 38 38 39 42 45 44 42 38 34 31 26 17 10 6 7 11 16 19 21 22 20 19 17 15 13 13 14 12 9 7 9 10 9 9 10 10 9 7 5
40 41 42 44 45 43 43 45 45 43 40 36 34 31 26 20 11 4 4 10 14 15 16 18 19 17 13 10 11 15 18 16 10 6 6 6 5 6 8 9 8 5 4
35 36 38 42 44 42 42 45 43 38 34 32 31 29 26 22 13 4 3 9 13 13 14 15 14 11 7 4 7 13 16 15 12 8 6 5 3 3 4 4 4 4 3
35 35 36 38 39 38 40 45 44 37 31 29 29 28 26 23 14 5 2 5 9 12 14 14 11 6 2 1 4 9 11 11 12 11 9 7 6 4 3 2 3 3 3
38 38 38 38 37 36 39 43 44 42 35 29 27 27 26 22 14 6 2 1 4 9 13 13 9 4 1 0 1 3 4 5 9 10 8 7 7 6 5 5 6 4 4
39 39 39 38 37 38 38 38 41 42 36 29 25 24 24 22 17 10 4 1 1 5 9 9 5 2 0 0 0 0 1 3 6 7 5 5 7 7 6 8 10 8 7
35 34 33 32 34 36 35 33 35 36 32 27 24 22 23 22 17 11 7 5 3 3 4 4 2 1 1 1 1 1 2 4 5 6 6 6 7 7 7 9 10 10 10
28 27 25 24 27 30 29 26 26 27 25 22 21 20 21 19 12 8 9 9 5 3 3 3 3 4 5 6 6 5 6 7 7 7 7 7 8 8 7 7 8 8 8
23 22 19 19 22 24 24 20 17 16 14 12 12 12 13 11 6 4 6 6 4 2 3 5 6 8 9 9 9 10 11 11 9 8 7 7 7 7 7 7 7 6 4
19 18 17 17 18 19 19 17 14 11 8 7 5 4 5 4 2 1 2 2 1 1 2 4 7 10 11 10 10 11 11 11 10 9 8 8 7 7 6 6 6 4 3
14 14 14 16 16 15 13 14 14 12 12 11 7 3 1 1 0 0 0 0 0 0 1 4 7 10 10 10 9 9 8 9 8 8 8 8 8 5 4 4 3 2 1
10 10 11 14 13 12 10 10 12 13 14 14 11 6 1 0 0 0 0 0 0 0 1 4 7 8 8 9 8 7 7 7 6 5 5 6 5 2 1 1 1 1 0
7 7 9 10 11 10 9 9 10 12 12 12 11 7 3 1 1 0 0 0 0 0 1 4 5 5 5 6 6 6 6 6 6 4 3 3 2 0 0 0 0 0 0
6 6 7 8 9 9 8 7 8 10 11 9 7 5 3 2 2 1 1 1 1 1 3 4 3 1 2 3 3 4 4 5 5 4 3 1 0 0 0 0 0 0 0
5 6 6 6 7 7 6 6 7 8 10 9 6 4 2 2 2 2 3 3 2 3 3 3 1 0 0 1 1 2 3 3 4 4 3 1 0 0 0 0 0 0 0
5 5 4 4 5 4 4 5 6 8 10 9 7 4 2 1 1 2 4 4 3 3 3 2 1 0 0 0 0 1 2 2 2 3 4 2 0 0 0 0 0 0 1
4 4 4 4 4 4 4 5 5 7 8 8 6 5 4 2 1 2 4 5 4 3 2 2 2 1 0 0 0 0 0 0 1 2 3 3 1 1 1 1 1 2 2
3 3 4 5 5 5 6 6 6 6 7 6 5 4 3 1 1 2 5 5 4 3 2 2 2 1 0 0 0 0 0 0 0 1 2 3 3 2 2 2 2 3 3
2 3 4 5 6 7 8 8 7 6 7 6 4 3 1 1 2 3 4 5 4 3 3 2 1 0 0 0 0 0 0 0 0 1 2 3 3 3 3 3 2 2 2
Wind_Speed
5 4 3 3 3 3 2 2 2 1 1 1 1 2 2 2 1 2 2 2 2 2 3 2 2 2 2 3 3 2 2 2 3 3 2 1 1 1 1 2 2 3 4
5 4 3 3 3 4 3 3 2 2 2 1 1 2 2 2 2 2 2 2 2 3 3 3 3 3 3 3 3 3 3 2 2 4 3 2 2 2 2 3 3 4 2
6 5 4 4 4 4 3 2 2 2 2 2 2 2 2 2 2 2 2 3 3 3 3 3 3 2 3 3 3 3 3 3 3 3 3 3 2 2 2 3 3 2 3
5 4 3 3 2 2 2 2 3 3 3 2 2 2 2 2 2 2 3 3 3 3 3 3 3 2 2 3 4 3 3 4 4 3 3 3 2 2 1 2 3 2 2
4 4 3 3 2 2 2 2 2 3 3 2 2 2 3 2 2 2 3 4 3 4 3 3 3 3 3 3 3 2 3 3 3 3 3 3 3 2 2 2 3 2 3
3 3 3 3 2 2 2 2 2 2 2 2 2 2 2 2 2 2 3 4 3 3 3 3 4 4 4 4 5 5 4 4 3 3 3 3 4 3 2 3 3 3 3
2 2 3 3 3 3 3 2 2 3 3 3 2 2 2 1 2 2 3 4 4 3 3 3 4 3 2 3 4 6 6 7 6 4 5 5 4 3 3 4 3 4 4
2 2 2 2 3 3 2 2 2 2 3 2 2 2 2 2 2 3 5 4 4 4 4 3 3 3 3 3 4 4 5 5 6 5 5 5 4 3 3 4 5 5 4
2 2 2 2 2 2 2 2 2 2 3 3 3 3 3 3 3 4 4 4 4 4 4 3 2 2 3 4 4 5 5 5 6 7 7 6 6 6 5 3 3 3 4
2 2 2 2 2 2 2 3 3 3 3 4 3 4 4 3 4 4 4 4 4 4 3 3 2 2 3 4 4 5 5 5 5 5 5 5 5 5 6 4 3 3 3
1 1 2 2 3 3 3 3 3 4 4 4 5 4 4 4 4 5 4 3 4 4 3 3 2 3 5 5 6 5 6 5 5 5 4 3 3 2 2 2 2 3 3
0 1 2 3 4 3 3 4 4 5 5 5 5 4 3 4 4 5 6 6 5 4 4 3 2 3 5 7 6 6 7 6 4 4 3 3 2 2 2 2 2 3 3
1 2 2 3 3 3 4 4 4 4 5 4 4 4 3 2 3 5 6 7 7 4 4 4 4 5 6 6 7 7 5 3 3 3 3 3 2 2 2 2 2 2 2
1 2 2 3 4 3 3 4 4 4 4 3 3 3 2 1 0 1 1 2 4 4 4 4 6 8 6 5 5 4 4 3 3 3 2 2 2 2 2 1 2 2 2
2 3 3 4 3 3 3 3 3 2 2 2 2 2 2 2 1 1 1 2 2 2 3 3 3 3 2 2 2 2 2 2 2 2 2 2 2 2 1 1 2 2 2
3 3 3 4 3 3 3 2 2 2 3 3 2 2 1 1 2 2 2 2 3 2 2 3 3 3 3 2 2 2 1 1 2 2 2 2 2 2 2 2 2 2 2
3 4 4 4 4 3 3 2 2 2 2 3 3 3 3 2 3 4 4 3 3 2 3 3 3 2 2 2 2 2 2 2 2 2 2 2 2 2 2 1 1 2 2
4 4 4 4 4 3 3 3 3 3 2 2 3 4 5 4 4 5 3 1 2 2 3 3 2 2 2 2 2 2 2 2 2 2 2 2 2 2 2 2 2 2 2
4 3 3 4 4 4 3 3 3 3 2 1 1 1 4 4 4 4 3 2 3 2 2 2 2 2 2 1 2 2 2 2 2 2 1 1 1 2 2 2 2 2 2
3 5 5 4 4 3 3 3 3 3 2 1 1 1 1 1 2 2 2 2 2 2 2 1 1 1 1 1 1 2 2 2 2 2 2 2 2 1 2 2 2 2 2
4 4 5 4 3 3 3 3 3 2 2 1 1 1 2 2 2 2 2 1 1 2 1 1 1 1 1 1 1 2 2 1 1 2 1 2 2 2 2 2 2 2 2
4 4 3 3 3 2 3 3 3 2 2 2 1 1 2 1 0 1 1 1 1 1 1 1 1 1 1 1 1 2 2 2 2 2 2 2 2 2 2 3 3 2 2
4 4 3 2 2 2 3 3 2 2 2 1 1 0 1 1 1 0 1 1 1 1 1 1 1 1 1 1 1 1 2 2 2 2 2 2 2 2 2 3 3 3 3
4 3 3 2 2 2 2 2 2 2 2 1 0 0 0 1 1 1 1 0 0 0 0 1 1 2 2 2 1 2 3 3 3 3 3 2 2 2 2 2 3 3 3
3 3 3 2 3 3 2 2 2 2 2 1 1 0 0 0 0 1 0 0 0 0 1 1 1 1 2 3 3 4 4 4 3 3 3 3 3 3 2 2 2 3 3
3 3 2 2 2 2 2 2 2 2 1 1 1 0 0 1 1 1 1 0 0 0 0 1 1 2 3 3 4 4 3 3 3 4 3 2 2 2 2 2 2 2 2
Wind_Direction
180 171 188 189 196 209 221 237 251 261 260 263 271 270 265 269 275 266 265 265 267 271 278 276 272 268 278 293 296 283 276 270 274 289 297 307 293 275 253 250 232 219 214
176 174 194 197 195 206 217 215 221 244 254 258 258 270 270 272 272 274 278 283 274 271 269 266 272 282 287 289 295 289 285 278 273 285 288 284 272 241 227 243 256 252 224
180 184 193 198 202 206 218 224 216 227 242 255 261 268 277 282 277 275 275 274 271 268 269 265 262 273 285 286 284 288 291 291 274 272 276 272 268 262 254 259 259 256 255
180 183 191 196 201 210 206 221 226 227 226 231 243 256 265 272 284 290 285 272 273 273 269 269 261 262 279 287 279 284 289 288 281 279 279 274 270 273 279 269 269 258 261
177 186 190 187 186 203 205 209 225 241 239 228 233 246 255 253 283 303 293 277 278 276 275 271 257 245 250 259 277 287 287 281 284 282 285 293 292 292 277 273 277 279 265
175 189 181 183 194 210 209 212 218 235 247 243 244 251 262 278 300 306 301 293 289 282 280 281 266 242 245 254 261 269 272 272 281 277 281 283 286 290 288 285 287 285 282
164 174 186 192 199 215 224 214 219 232 237 230 233 236 241 272 300 305 300 282 281 280 276 271 278 285 271 273 266 264 262 263 260 261 271 275 275 276 274 276 275 272 273
167 174 192 204 210 212 216 235 240 242 247 237 230 232 233 240 245 268 291 266 269 271 268 259 259 279 292 299 281 272 264 263 258 252 254 264 275 266 254 259 265 265 269
184 191 205 216 218 226 234 239 245 242 251 248 234 235 235 231 228 243 270 270 264 264 259 255 251 263 307 310 285 279 275 275 270 269 263 260 263 263 254 260 264 266 273
198 210 213 218 214 235 247 252 253 249 247 250 241 240 237 229 216 227 245 264 268 271 260 239 230 242 268 271 268 273 274 282 291 288 276 265 255 251 244 228 235 254 266
205 238 220 229 228 226 232 246 254 252 251 252 251 241 232 229 205 209 219 250 275 281 273 263 242 238 255 259 260 265 266 277 281 272 268 261 253 248 244 242 239 246 258
286 268 255 242 243 228 224 236 244 247 246 244 247 248 232 216 210 209 214 231 265 279 285 282 278 272 267 263 258 262 271 278 272 272 271 269 268 265 266 265 263 257 249
284 276 278 275 259 231 229 237 243 246 248 246 239 242 242 206 194 210 220 239 252 260 281 296 291 277 267 257 247 252 260 263 269 268 273 280 274 264 259 259 265 264 266
286 291 277 270 265 249 245 241 244 253 256 265 268 269 267 247 169 214 245 254 254 258 276 287 272 261 254 259 258 246 242 253 262 269 273 272 268 267 273 274 268 266 270
268 271 270 264 268 254 252 260 256 253 257 264 277 281 280 276 249 222 246 264 274 280 283 270 268 262 252 248 248 242 239 246 262 271 278 285 284 278 276 287 278 279 274
271 271 272 270 261 248 248 261 283 248 237 234 234 246 268 232 227 223 235 263 274 276 266 269 276 279 286 289 284 272 261 269 268 265 268 267 273 275 277 287 286 286 289
275 276 281 284 275 263 256 258 264 270 253 233 232 233 236 246 242 247 253 276 279 232 243 255 265 276 288 295 300 295 285 271 267 265 265 271 280 288 288 288 297 307 305
268 265 275 282 278 274 273 271 268 265 266 260 245 239 234 236 240 245 243 267 275 236 245 259 270 274 279 290 304 307 306 307 297 290 288 291 300 296 292 286 277 278 286
270 274 276 282 278 274 271 277 280 282 283 286 303 230 225 234 238 245 219 235 258 268 276 288 305 308 308 313 317 317 311 304 308 307 314 320 312 293 293 295 290 292 286
254 260 264 265 265 273 281 285 286 286 280 272 253 271 170 186 223 229 218 236 255 271 293 313 317 326 327 336 333 323 324 336 346 345 338 325 315 304 296 298 303 310 304
278 262 251 259 260 272 276 278 280 282 280 283 273 153 156 217 235 225 209 224 259 283 301 313 310 315 332 335 325 317 326 342 343 336 336 333 333 331 323 310 300 296 289
273 268 259 259 264 273 278 274 275 282 290 294 292 126 160 209 281 278 282 245 249 265 291 307 308 336 356 349 338 327 331 343 345 343 332 326 330 326 327 318 314 312 299
273 272 265 261 261 251 256 270 277 279 281 281 284 102 161 256 283 268 278 285 272 259 266 279 304 352 12 12 1 354 353 346 329 319 311 308 312 312 310 308 305 304 304
282 278 283 280 278 275 278 284 289 302 307 298 287 94 187 210 272 288 270 288 330 337 315 323 28 46 36 27 17 25 22 358 337 330 315 295 289 290 294 293 295 297 302
284 280 282 291 291 285 284 292 304 320 327 325 321 326 319 319 295 303 316 31 44 30 21 28 26 46 56 47 44 35 22 11 356 336 311 293 286 288 295 302 312 322 322
304 300 299 300 294 296 298 298 297 304 298 275 265 306 330 339 338 331 346 354 342 338 359 38 40 47 64 59 50 46 31 9 359 344 318 295 302 322 329 321 319 316 312